Regional Weather Roundup
Issued by NWS

Home | Current Version | Previous Version | Text Only | Print | Product List | Glossary On
Versions: 1 2 3 4 5 6 7 8 9 10 11 12 13 14 15 16 17 18 19 20 21 22 23 24 25 26 27 28 29 30 31 32 33 34 35 36 37 38 39 40 41 42 43 44 45 46 47 48 49 50
000
ASUS43 KOAX 240510
RWRNE

WEATHER ROUNDUP FOR NEBRASKA
NATIONAL WEATHER SERVICE OMAHA NE
1200 AM CDT THU APR 24 2014

NOTES: SATELLITE DATA IS BEING USED TO AUGMENT CLOUD COVER ABOVE
       12000 FEET.
       "FAIR" INDICATES FEW OR NO CLOUDS BELOW 12,000 FEET WITH NO
       SIGNIFICANT WEATHER AND/OR OBSTRUCTIONS TO VISIBILITY.

  * THESE STATIONS DO NOT REPORT WEATHER SUCH AS RAIN...SNOW OR FOG.

NEZ001>004-019>022-054>056-240600-
NEBRASKA PANHANDLE

CITY           SKY/WX    TMP DP  RH WIND       PRES   REMARKS
SCOTTSBLUFF    CLOUDY    50  31  48 N16       29.84R
ALLIANCE       CLOUDY    47  38  71 N9        29.84R HAZE
CHADRON        CLOUDY    47  41  80 SW3       29.83R
KIMBALL        CLOUDY    50   5  16 NW21G31   29.85R
SIDNEY         CLOUDY    53  11  18 NW14      29.84R
$$

NEZ057>060-069>072-079>082-240600-
SOUTHWEST NEBRASKA

CITY           SKY/WX    TMP DP  RH WIND       PRES   REMARKS
NORTH PLATTE   MOCLDY    56  39  53 N17G26    29.72R
IMPERIAL       PTCLDY    54  28  36 NW26G41   29.80R
LEXINGTON      CLOUDY    59  47  63 N18       29.67R
MCCOOK         CLOUDY    59  32  36 NW31G38   29.71R
OGALLALA       LGT RAIN  52  33  49 NW23G33   29.80S
$$

NEZ005>010-023>029-035>040-094-240600-
NORTH CENTRAL NEBRASKA

CITY           SKY/WX    TMP DP  RH WIND       PRES   REMARKS
VALENTINE      CLOUDY    53  37  54 NW14G21   29.76S
AINSWORTH      CLOUDY    54  39  56 NW24      29.73F
BROKEN BOW     CLOUDY    55  43  63 N23       29.65F
O`NEILL        CLOUDY    58  41  54 NW10      29.69R
ORD            LGT RAIN  54  48  80 N14G24    29.64R
THEDFORD       CLOUDY    55  38  51 N24       29.74F
$$

NEZ041-046>049-061>064-073>077-083>087-240600-
SOUTH CENTRAL NEBRASKA

CITY           SKY/WX    TMP DP  RH WIND       PRES   REMARKS
GRAND ISLAND   LGT RAIN  57  54  89 E7        29.62F
AURORA         LGT RAIN  56  56 100 E16       29.60F
HASTINGS       TSTM      57  54  89 N5        29.63R
HEBRON         CLOUDY    57  51  79 NE16G22   29.59S
HOLDREGE       RAIN      57  46  64 N13       29.64R
KEARNEY *      CLOUDY    57  46  67 N13       29.65R
YORK           LGT RAIN  54  54 100 E10       29.66R
$$

NEZ011>018-030>034-042>045-240600-
NORTHEAST NEBRASKA

CITY           SKY/WX    TMP DP  RH WIND       PRES   REMARKS
NORFOLK        LGT RAIN  57  53  86 S10       29.62S
ALBION         RAIN      55  53  91 S10       29.63R
BLAIR          CLOUDY    50  44  80 N14       29.67F
COLUMBUS *     CLOUDY    55  48  76 SE10      29.67S
FREMONT        LGT RAIN  51  47  84 N9        29.71R
TEKAMAH        CLOUDY    52  47  83 N12       29.71F
$$

NEZ050>053-065>068-078-088>093-240600-
SOUTHEAST NEBRASKA

CITY           SKY/WX    TMP DP  RH WIND       PRES   REMARKS
LINCOLN        LGT RAIN  55  48  77 N20       29.70R
OMAHA EPPLEY   CLOUDY    51  45  79 N10       29.67F
BEATRICE       CLOUDY    60  47  61 N18G39    29.60R
FALLS CITY     CLOUDY    63  43  48 SE13      29.60F
NEBRASKA CITY  CLOUDY    64  42  45 SE21G31   29.59F
PLATTSMOUTH    CLOUDY    60  42  50 E5        29.64S
$$

NEZ044-045-051>053-067-240600-
OMAHA AREA

CITY           SKY/WX    TMP DP  RH WIND       PRES   REMARKS
OMAHA EPPLEY   CLOUDY    51  45  79 N10       29.67F
BLAIR          CLOUDY    50  44  80 N14       29.67F
FREMONT        LGT RAIN  51  47  84 N9        29.71R
MILLARD        CLOUDY    53  46  76 CALM      29.66F
PLATTSMOUTH    CLOUDY    60  42  50 E5        29.64S
WAHOO          LGT RAIN  51  45  79 N15       29.70R
$$



USA.gov is the U.S. government's official web portal to all federal, state and local government web resources and services.